Current weather by "City, St" or "zip code"  
 

Current Conditions: Plymouth, Plymouth Municipal Airport, MA

Fair


58.0 F

Last Updated on Sep 22 2020, 8:52 pm EDT
Humidity: 39%
Wind Speed: NW 11.5 mph
Barometer 29.74 in
Dewpoint: 33.1 F
Visibility: 10.00 mi
Precip: --
Heat Index: NA
Wind Chill: 56 F
Current conditions at:

Plymouth, Plymouth Municipal Airport, MA (KPYM)

Lat: 41.90861 Lon: 70.72806

Local Radar Image active severe weather and emergency alerts image image weather storm and storm spotter reports image weather observation monitoring service image
Local
Radar
Active
Alerts
Storm Reports Obs
Monitoring

Sign-up For Email & Text Message Weather Alert Notification Services



Advertise Here

Observation History for Plymouth, Plymouth Municipal Airport, MA


Time Wind
(mph)
Vis
(mi)
Weather Precip (in) Temperature (F) Relative
Humidity
Wind
Chill
(F)
Heat
Index
(F)
Pressure
Air Dwpt altimeter
(in)
sea level
(mb)
Rmks
8:52 pm EDT NW 11.5 10.00 Fair -- 58.0 33.1 39% 56 NA 29.74 1006.9
7:52 pm EDT NW 10.4 10.00 Fair -- 59.0 30.9 35% 57 NA 29.75 1007.5
6:52 pm EDT NW 8.1 10.00 Fair -- 61.0 33.1 35% 60 NA 29.75 1007.5
5:52 pm EDT NW 11.5 10.00 Fair -- 62.0 35.1 37% 61 NA 29.77 1008.1
4:52 pm EDT NW 12.7 10.00 Fair -- 63.0 34.0 34% 62 NA 29.79 1008.7
3:52 pm EDT NW 15.0 10.00 Fair -- 63.0 32.0 31% 61 NA 29.80 1009.1
2:52 pm EDT N 16.1 G 24.2 10.00 Fair -- 63.0 33.1 33% 61 NA 29.84 1010.5
1:52 pm EDT N 23.0 G 35.7 10.00 Fair and Breezy -- 64.0 34.0 33% NA NA 29.89 1011.9
12:52 pm EDT N 18.4 G 27.6 10.00 Fair -- 64.0 35.1 34% NA NA 29.94 1013.6
11:52 am EDT N 20.7 G 27.6 10.00 Fair and Breezy -- 61.0 35.1 38% 58 NA 29.99 1015.5
10:52 am EDT N 11.5 10.00 Fair -- 58.0 39.0 50% 56 NA 30.02 1016.7
9:52 am EDT N 12.7 G 18.4 10.00 Fair -- 55.0 39.0 55% 52 NA 30.06 1017.8
8:52 am EDT NW 9.2 10.00 Fair -- 52.0 39.9 64% 49 NA 30.09 1019.0
7:52 am EDT W 5.8 10.00 Fair -- 45.0 37.9 77% 42 NA 30.13 1020.2
6:52 am EDT NW 8.1 10.00 Fair -- 44.0 37.0 76% 39 NA 30.13 1020.2
5:52 am EDT N 10.4 10.00 Fair -- 46.0 36.0 68% 41 NA 30.16 1021.4
4:52 am EDT N 9.2 10.00 Fair -- 45.0 37.0 74% 40 NA 30.18 1022.1
3:52 am EDT N 8.1 10.00 Fair -- 45.0 39.0 80% 41 NA 30.22 1023.5
2:52 am EDT N 8.1 10.00 Fair -- 46.0 39.9 79% 42 NA 30.24 1024.2
1:52 am EDT N 9.2 10.00 Fair -- 45.0 39.0 80% 40 NA 30.28 1025.3
12:52 am EDT N 5.8 10.00 Fair -- 46.0 36.0 68% 43 NA 30.30 1026.2
11:52 pm EDT N 4.6 10.00 Fair -- 47.0 39.0 74% 45 NA 30.34 1027.3
10:52 pm EDT NW 3.5 10.00 Fair -- 47.0 41.0 80% NA NA 30.37 1028.2
9:52 pm EDT N 4.6 10.00 Fair -- 47.0 41.0 80% 45 NA 30.39 1029.1

Regional Weather Observation


East Milton, MA (KMQE)

NULL
57.0 F

Norwood, Norwood Memorial Airport, MA (KOWD)

Fair
61.0 F

Boston, Logan International Airport, MA (KBOS)

Mostly Cloudy
61.0 F

Plymouth, Plymouth Municipal Airport, MA (KPYM)

Fair
58.0 F

Taunton, Taunton Municipal Airport, MA (KTAN)

Fair
62.0 F

Beverly, Beverly Municipal Airport, MA (KBVY)

Fair
60.0 F